Regional Weather Roundup
Issued by NWS Sioux Falls, SD

Home | Current Version | Previous Version | Graphics & Text | Print | Product List | Glossary Off
Versions: 1 2 3 4 5 6 7 8 9 10 11 12 13 14 15 16 17 18 19 20 21 22 23 24 25 26 27 28 29 30 31 32 33 34 35 36 37 38 39 40 41 42 43 44 45 46 47 48 49 50

196
ASUS43 KFSD 221402
RWRFSD

WEATHER ROUNDUP FOR SE SOUTH DAKOTA/SW MINNESOTA/NW IOWA
NATIONAL WEATHER SERVICE SIOUX FALLS SD
900 AM CDT SUN OCT 22 2017

NOTE: "FAIR" INDICATES FEW OR NO CLOUDS BELOW 12,000 FEET WITH NO
SIGNIFICANT WEATHER AND OR OBSTRUCTIONS TO VISIBILITY.


SDZ038>040-050-052>070-221500-
SOUTHEAST SOUTH DAKOTA

CITY           SKY/WX    TMP DP  RH WIND       PRES   REMARKS
BROOKINGS      SUNNY     37  32  82 S8        30.02R
CHAMBERLAIN    CLEAR     37  32  81 CALM      30.02S
HURON          PTCLDY    40  32  73 S6        30.01S
MADISON        FAIR      37  34  87 SW9       30.03S
MITCHELL       MOSUNNY   42  31  64 SW8       30.04S
SIOUX FALLS    MOSUNNY   43  34  70 CALM      30.06R
WINNER         FAIR      40  26  57 SW9       30.01S
YANKTON        SUNNY     38  34  85 E3        30.07R
$$

MNZ071-072-080-081-089-090-097-098-221500-
SOUTHWEST MINNESOTA

CITY           SKY/WX    TMP DP  RH WIND       PRES   REMARKS
FAIRMONT       CLOUDY    44  39  82 W8        30.03R
JACKSON        SUNNY     43  36  75 W6        30.03R
LUVERNE        SUNNY     32  32 100 S3        30.06R
MARSHALL       SUNNY     44  36  73 W12       30.01R
MONTEVIDEO     SUNNY     43  37  81 W6        29.98S
PIPESTONE      SUNNY     34  32  93 W3        30.03R
REDWOOD FALLS  CLOUDY    44  35  70 SW9       29.99R
TRACY          SUNNY     43  37  79 SW8       30.01S
WORTHINGTON    SUNNY     41  36  82 SW9       30.04
$$

IAZ001>003-012>014-020>022-031-032-NEZ013-014-SDZ071-221500-
NORTHWEST IOWA

CITY           SKY/WX    TMP DP  RH WIND       PRES   REMARKS
CHEROKEE       SUNNY     38  38 100 S5        30.08R
DENISON        SUNNY     45  41  87 CALM      30.10R
ESTHERVILLE    SUNNY     42  40  92 W8        30.03R
LE MARS        SUNNY     39  37  93 CALM      30.08R
ORANGE CITY    SUNNY     39  39 100 W5        30.07R
SHELDON        SUNNY     37  36  93 CALM      30.05R
SIOUX CITY     SUNNY     41  41 100 CALM      30.10R
SPENCER        CLOUDY    41  38  89 W8        30.05R
STORM LAKE     SUNNY     43  37  81 W6        30.07R
$$

ABBREVIATIONS USED IN REMARKS
   TC - TEMPERATURE IN CELSIUS
  WCI - WIND CHILL INDEX
   HX - HEAT INDEX
  VSB - VISIBILITY





USA.gov is the U.S. government's official web portal to all federal, state and local government web resources and services.